TimeCST,TemperatureF,Dew PointF,Humidity,Sea Level PressureIn,VisibilityMPH,Wind Direction,Wind SpeedMPH,Gust SpeedMPH,PrecipitationIn,Events,Conditions,WindDirDegrees,DateUTC
12:15 AM,3.2,-0.4,85,30.05,10.0,Calm,Calm,-,N/A,,Clear,0,2013-01-05 06:15:00
12:36 AM,5.0,1.4,85,30.04,10.0,East,3.5,-,N/A,,Clear,90,2013-01-05 06:36:00
12:55 AM,3.2,-0.4,85,30.02,10.0,ESE,10.4,-,N/A,,Clear,120,2013-01-05 06:55:00
1:15 AM,5.0,1.4,85,30.01,10.0,SE,8.1,-,N/A,,Clear,140,2013-01-05 07:15:00
1:36 AM,5.0,1.4,85,30.00,10.0,SE,6.9,-,N/A,,Clear,140,2013-01-05 07:36:00
1:55 AM,5.0,1.4,85,30.01,10.0,SSE,3.5,-,N/A,,Clear,150,2013-01-05 07:55:00
2:15 AM,3.2,1.4,92,30.00,10.0,SSE,5.8,-,N/A,,Clear,150,2013-01-05 08:15:00
2:36 AM,5.0,-0.4,78,30.02,10.0,Calm,Calm,-,N/A,,Clear,0,2013-01-05 08:36:00
2:55 AM,5.0,-0.4,78,30.02,7.0,Calm,Calm,-,N/A,,Clear,0,2013-01-05 08:55:00
3:15 AM,3.2,-0.4,85,30.01,5.0,SE,3.5,-,N/A,,Clear,140,2013-01-05 09:15:00
3:35 AM,3.2,-2.2,78,29.99,7.0,Calm,Calm,-,N/A,,Clear,0,2013-01-05 09:35:00
3:55 AM,3.2,-2.2,78,29.97,7.0,ESE,4.6,-,N/A,,Clear,120,2013-01-05 09:55:00
4:15 AM,3.2,-0.4,85,29.96,10.0,Calm,Calm,-,N/A,,Clear,0,2013-01-05 10:15:00
4:35 AM,3.2,-0.4,85,29.95,10.0,Calm,Calm,-,N/A,,Clear,0,2013-01-05 10:35:00
4:55 AM,1.4,-2.2,85,29.95,10.0,Calm,Calm,-,N/A,,Clear,0,2013-01-05 10:55:00
5:15 AM,3.2,-2.2,78,29.95,10.0,Calm,Calm,-,N/A,,Clear,0,2013-01-05 11:15:00
5:55 AM,1.4,-2.2,85,29.94,10.0,SE,3.5,-,N/A,,Clear,130,2013-01-05 11:55:00
6:15 AM,1.4,-2.2,85,29.94,10.0,SE,3.5,-,N/A,,Clear,130,2013-01-05 12:15:00
6:35 AM,1.4,-2.2,85,29.93,10.0,Calm,Calm,-,N/A,,Clear,0,2013-01-05 12:35:00
6:55 AM,1.4,-4.0,78,29.93,10.0,Calm,Calm,-,N/A,,Clear,0,2013-01-05 12:55:00
7:15 AM,-0.4,-5.8,78,29.92,10.0,Calm,Calm,-,N/A,,Clear,0,2013-01-05 13:15:00
7:35 AM,1.4,-2.2,85,29.92,10.0,SE,3.5,-,N/A,,Clear,140,2013-01-05 13:35:00
7:55 AM,-0.4,-5.8,78,29.92,10.0,SE,3.5,-,N/A,,Clear,130,2013-01-05 13:55:00
8:15 AM,1.4,-2.2,85,29.92,10.0,Calm,Calm,-,N/A,,Clear,0,2013-01-05 14:15:00
8:35 AM,1.4,-4.0,78,29.92,10.0,Calm,Calm,-,N/A,,Clear,0,2013-01-05 14:35:00
8:55 AM,1.4,-2.2,85,29.92,10.0,Calm,Calm,-,N/A,,Clear,0,2013-01-05 14:55:00
9:15 AM,3.2,-2.2,78,29.92,10.0,Calm,Calm,-,N/A,,Clear,0,2013-01-05 15:15:00
9:55 AM,6.8,1.4,79,29.92,10.0,Calm,Calm,-,N/A,,Clear,0,2013-01-05 15:55:00
10:15 AM,6.8,3.2,85,29.92,10.0,Calm,Calm,-,N/A,,Clear,0,2013-01-05 16:15:00
10:55 AM,8.6,3.2,79,29.93,10.0,Calm,Calm,-,N/A,,Clear,0,2013-01-05 16:55:00
11:15 AM,10.4,6.8,85,29.92,10.0,WNW,5.8,-,N/A,,Clear,290,2013-01-05 17:15:00
11:35 AM,12.2,10.4,92,29.90,10.0,WNW,6.9,-,N/A,,Clear,300,2013-01-05 17:35:00
11:55 AM,14.0,10.4,86,29.90,10.0,NW,4.6,-,N/A,,Clear,310,2013-01-05 17:55:00
12:15 PM,14.0,10.4,86,29.89,10.0,NW,12.7,-,N/A,,Clear,310,2013-01-05 18:15:00
12:35 PM,15.8,10.4,79,29.88,10.0,NW,10.4,-,N/A,,Clear,310,2013-01-05 18:35:00
12:55 PM,15.8,10.4,79,29.88,10.0,WNW,9.2,-,N/A,,Clear,300,2013-01-05 18:55:00
1:15 PM,15.8,10.4,79,29.87,10.0,WNW,10.4,-,N/A,,Clear,300,2013-01-05 19:15:00
1:35 PM,15.8,10.4,79,29.86,10.0,NW,10.4,-,N/A,,Clear,310,2013-01-05 19:35:00
1:55 PM,17.6,10.4,73,29.87,10.0,NW,15.0,-,N/A,,Clear,310,2013-01-05 19:55:00
2:15 PM,17.6,10.4,73,29.87,10.0,NW,13.8,-,N/A,,Clear,310,2013-01-05 20:15:00
2:35 PM,17.6,10.4,73,29.88,10.0,WNW,13.8,-,N/A,,Clear,300,2013-01-05 20:35:00
2:55 PM,15.8,10.4,79,29.89,10.0,WNW,13.8,-,N/A,,Clear,300,2013-01-05 20:55:00
3:15 PM,15.8,8.6,73,29.89,10.0,WNW,12.7,-,N/A,,Clear,300,2013-01-05 21:15:00
3:35 PM,15.8,10.4,79,29.89,10.0,NW,15.0,-,N/A,,Clear,310,2013-01-05 21:35:00
3:55 PM,15.8,8.6,73,29.90,10.0,NW,16.1,-,N/A,,Clear,310,2013-01-05 21:55:00
4:15 PM,15.8,8.6,73,29.91,10.0,NW,15.0,-,N/A,,Clear,310,2013-01-05 22:15:00
4:55 PM,10.4,6.8,85,29.94,5.0,NW,20.7,-,N/A,,Haze,310,2013-01-05 22:55:00
5:15 PM,10.4,6.8,85,29.95,4.0,NW,20.7,-,N/A,Snow,Light Snow,310,2013-01-05 23:15:00
5:35 PM,10.4,5.0,79,29.96,5.0,NW,19.6,-,N/A,,Haze,310,2013-01-05 23:35:00
5:55 PM,8.6,3.2,79,29.97,7.0,NW,18.4,-,N/A,,Overcast,310,2013-01-05 23:55:00
6:15 PM,8.6,3.2,79,29.98,7.0,NW,20.7,-,N/A,,Overcast,310,2013-01-06 00:15:00
6:35 PM,10.4,3.2,73,30.00,5.0,NW,18.4,-,N/A,,Haze,320,2013-01-06 00:35:00
6:55 PM,10.4,3.2,73,30.00,7.0,NW,16.1,-,N/A,,Overcast,320,2013-01-06 00:55:00
7:15 PM,8.6,3.2,79,30.01,7.0,NW,12.7,-,N/A,,Overcast,320,2013-01-06 01:15:00
7:35 PM,8.6,3.2,79,30.01,7.0,NW,10.4,-,N/A,,Mostly Cloudy,320,2013-01-06 01:35:00
7:55 PM,8.6,5.0,85,30.02,7.0,WNW,12.7,-,N/A,,Scattered Clouds,300,2013-01-06 01:55:00
8:15 PM,10.4,5.0,79,30.01,7.0,WNW,11.5,-,N/A,,Clear,300,2013-01-06 02:15:00
8:35 PM,10.4,6.8,85,30.02,7.0,WNW,16.1,-,N/A,,Clear,300,2013-01-06 02:35:00
8:55 PM,10.4,6.8,85,30.03,10.0,WNW,11.5,-,N/A,,Clear,300,2013-01-06 02:55:00
9:15 PM,10.4,6.8,85,30.04,10.0,WNW,15.0,-,N/A,,Clear,300,2013-01-06 03:15:00
9:35 PM,10.4,6.8,85,30.05,10.0,WNW,15.0,20.7,N/A,,Mostly Cloudy,300,2013-01-06 03:35:00
9:55 PM,10.4,6.8,85,30.05,10.0,WNW,15.0,-,N/A,,Scattered Clouds,300,2013-01-06 03:55:00
10:15 PM,10.4,6.8,85,30.06,10.0,WNW,13.8,-,N/A,,Clear,300,2013-01-06 04:15:00
10:35 PM,10.4,5.0,79,30.06,10.0,WNW,12.7,-,N/A,,Clear,300,2013-01-06 04:35:00
10:55 PM,10.4,3.2,73,30.07,10.0,WNW,10.4,-,N/A,,Clear,300,2013-01-06 04:55:00
11:15 PM,8.6,3.2,79,30.08,10.0,WNW,13.8,-,N/A,,Clear,300,2013-01-06 05:15:00
11:35 PM,8.6,1.4,73,30.08,10.0,WNW,15.0,-,N/A,,Clear,300,2013-01-06 05:35:00
11:55 PM,6.8,1.4,79,30.09,10.0,WNW,11.5,-,N/A,,Clear,290,2013-01-06 05:55:00